Location: Observatoire
(46.1952°N, 5.3391°E)
Time: 01:47:56
(UTC+01:00)

Altair - Pass Details

Date: 24 February 2026
Orbit: 1502 x 1682 km, 47.2° (Epoch: 9 March)

Event Time Altitude Azimuth Distance (km) Brightness Sun altitude
Rises 05:33:07 0° 260° (W) 4,632 - -20.4°
Reaches altitude 10° 05:36:07 10° 260° (W) 3,656 - -19.9°
Exits shadow 05:39:40 28° 262° (W) 2,555 8.0 -19.3°
Maximum altitude 05:45:20 87° 350° (N) 1,532 7.4 -18.3°
Drops below altitude 10° 05:54:52 10° 82° (E) 3,757 10.9 -16.7°
Sets 05:57:59 0° 83° (E) 4,765 11.9 -16.1°
